,,Stat6,,Stat2,,Stat8,,Stat9,,Stat10,,Wind1,,Wind1,
time,status,PA1M_AVG,status,PR1M_SUM,status,RH1M_AVG,status,SR1M_AVG,status,TA1M_AVG,status,W1dAve1m,status,W1sAve1m,
2004-07-14, 00:00:00,VALID,917.261,VALID,0,VALID,99.5501,VALID,0.0169808,VALID,19.115,VALID,114,VALID,0.664608,
2004-07-14, 00:01:01,VALID,917.259,VALID,0,VALID,99.5145,VALID,0.0169808,VALID,19.0867,VALID,91,VALID,0.888263,
2004-07-14, 00:02:01,VALID,917.257,VALID,0,VALID,99.6913,VALID,0.0169808,VALID,19.0698,VALID,74,VALID,1.06359,
2004-07-14, 00:03:00,VALID,917.246,VALID,0,VALID,99.7421,VALID,0,VALID,19.0832,VALID,70,VALID,1.12805,
2004-07-14, 00:04:00,VALID,917.251,VALID,0,VALID,99.8299,VALID,0,VALID,19.077,VALID,78,VALID,1.13201,
2004-07-14, 00:05:00,VALID,917.237,VALID,0,VALID,99.9443,VALID,0,VALID,19.0999,VALID,71,VALID,1.06079,
2004-07-14, 00:06:00,VALID,917.216,VALID,0,VALID,99.9697,VALID,-0.0169808,VALID,19.1058,VALID,83,VALID,1.25763,
2004-07-14, 00:07:00,VALID,917.207,VALID,0,VALID,100,VALID,0,VALID,19.1476,VALID,77,VALID,1.18527,
2004-07-14, 00:08:01,VALID,917.184,VALID,0,VALID,100,VALID,0.0169808,VALID,19.1543,VALID,90,VALID,1.10902,
2004-07-14, 00:09:00,VALID,917.159,VALID,0,VALID,100,VALID,0.0339617,VALID,19.161,VALID,93,VALID,0.828906,
2004-07-14, 00:10:00,VALID,917.134,VALID,0,VALID,99.9939,VALID,0.0169808,VALID,19.1513,VALID,116,VALID,0.99564,
2004-07-14, 00:11:01,VALID,917.128,VALID,0,VALID,99.9163,VALID,0.0339617,VALID,19.1026,VALID,127,VALID,0.933061,
2004-07-14, 00:12:00,VALID,917.096,VALID,0,VALID,99.9804,VALID,0.0169808,VALID,19.0569,VALID,114,VALID,1.41964,
2004-07-14, 00:13:00,VALID,917.08,VALID,0,VALID,100,VALID,0.0509425,VALID,19.0445,VALID,93,VALID,0.791548,
2004-07-14, 00:14:00,VALID,917.047,VALID,0,VALID,99.9878,VALID,0.0509425,VALID,18.9859,VALID,62,VALID,0.846768,
2004-07-14, 00:15:00,VALID,917.043,VALID,0,VALID,99.9669,VALID,0.101885,VALID,18.9469,VALID,71,VALID,0.879192,
2004-07-14, 00:16:00,VALID,917.034,VALID,0,VALID,99.9952,VALID,0.0509425,VALID,18.9084,VALID,86,VALID,1.11607,
2004-07-14, 00:17:00,VALID,917.026,VALID,0,VALID,100,VALID,0.0679233,VALID,18.9469,VALID,107,VALID,1.26435,
2004-07-14, 00:18:01,VALID,917.016,VALID,0,VALID,100,VALID,0.0509425,VALID,18.9767,VALID,115,VALID,1.0903,
2004-07-14, 00:19:00,VALID,917.004,VALID,0,VALID,100,VALID,0,VALID,18.9829,VALID,140,VALID,0.973474,
2004-07-14, 00:20:00,VALID,916.987,VALID,0,VALID,100,VALID,-0.0849042,VALID,18.9968,VALID,141,VALID,0.718956,
2004-07-14, 00:21:00,VALID,916.989,VALID,0,VALID,100,VALID,-0.0849042,VALID,18.9844,VALID,126,VALID,0.37168,
2004-07-14, 00:22:00,VALID,916.95,VALID,0,VALID,100,VALID,-0.0339617,VALID,18.9707,VALID,147,VALID,0.639717,
2004-07-14, 00:23:00,VALID,916.935,VALID,0,VALID,100,VALID,0.0169808,VALID,18.9509,VALID,155,VALID,0.931944,
2004-07-14, 00:24:01,VALID,916.903,VALID,0,VALID,100,VALID,0.0509425,VALID,18.937,VALID,148,VALID,1.00057,
2004-07-14, 00:25:00,VALID,916.876,VALID,0,VALID,100,VALID,0.0339617,VALID,18.9536,VALID,155,VALID,0.871003,
2004-07-14, 00:26:00,VALID,916.847,VALID,0,VALID,100,VALID,0.0339617,VALID,18.9444,VALID,156,VALID,0.757227,
2004-07-14, 00:27:00,VALID,916.826,VALID,0,VALID,100,VALID,0,VALID,18.9382,VALID,159,VALID,0.36109,
2004-07-14, 00:28:00,VALID,916.819,VALID,0,VALID,100,VALID,0.0169808,VALID,18.9216,VALID,159,VALID,0.441964,
2004-07-14, 00:29:00,VALID,916.813,VALID,0,VALID,100,VALID,0.0339617,VALID,18.8995,VALID,157,VALID,0.697409,
2004-07-14, 00:30:00,VALID,916.834,VALID,0,VALID,100,VALID,0.0169808,VALID,18.8572,VALID,141,VALID,0.93418,
2004-07-14, 00:31:01,VALID,916.856,VALID,0,VALID,100,VALID,0,VALID,18.8409,VALID,123,VALID,0.852805,
2004-07-14, 00:32:01,VALID,916.873,VALID,0,VALID,100,VALID,0,VALID,18.8086,VALID,72,VALID,0.410342,
2004-07-14, 00:33:00,VALID,916.89,VALID,0,VALID,100,VALID,0.0509425,VALID,18.7535,VALID,53,VALID,0.675967,
2004-07-14, 00:34:00,VALID,916.915,VALID,0,VALID,100,VALID,0.0679233,VALID,18.7251,VALID,51,VALID,0.914825,
2004-07-14, 00:35:00,VALID,916.928,VALID,0,VALID,100,VALID,0.0169808,VALID,18.664,VALID,51,VALID,1.0061,
2004-07-14, 00:36:00,VALID,916.944,VALID,0,VALID,100,VALID,0.0169808,VALID,18.6566,VALID,56,VALID,0.827195,
2004-07-14, 00:37:00,VALID,916.957,VALID,0,VALID,100,VALID,-0.0339617,VALID,18.729,VALID,61,VALID,0.770712,
2004-07-14, 00:38:01,VALID,916.95,VALID,0,VALID,100,VALID,-0.0339617,VALID,18.7973,VALID,77,VALID,0.616824,
2004-07-14, 00:39:00,VALID,916.928,VALID,0,VALID,100,VALID,-0.0679233,VALID,18.8487,VALID,88,VALID,0.422256,
2004-07-14, 00:40:00,VALID,916.898,VALID,0,VALID,100,VALID,-0.0679233,VALID,18.8939,VALID,88,VALID,0.345982,
2004-07-14, 00:41:00,VALID,916.876,VALID,0,VALID,100,VALID,-0.0339617,VALID,18.9394,VALID,88,VALID,0.196915,
2004-07-14, 00:42:00,VALID,916.859,VALID,0,VALID,100,VALID,-0.0339617,VALID,18.9391,VALID,88,VALID,0.33724,
2004-07-14, 00:43:00,VALID,916.848,VALID,0,VALID,100,VALID,-0.0339617,VALID,18.8716,VALID,88,VALID,0.458629,
2004-07-14, 00:44:00,VALID,916.842,VALID,0,VALID,99.9674,VALID,-0.101885,VALID,18.652,VALID,71,VALID,0.617914,
2004-07-14, 00:45:00,VALID,916.839,VALID,0,VALID,99.8894,VALID,-0.0679233,VALID,18.4417,VALID,65,VALID,0.59043,
2004-07-14, 00:46:01,VALID,916.832,VALID,0,VALID,100,VALID,-0.0169808,VALID,18.3963,VALID,65,VALID,0.310902,
2004-07-14, 00:47:00,VALID,916.847,VALID,0,VALID,100,VALID,-0.0169808,VALID,18.3905,VALID,65,VALID,0.340298,
2004-07-14, 00:48:00,VALID,916.853,VALID,0,VALID,100,VALID,-0.0509425,VALID,18.3647,VALID,65,VALID,0.553757,
2004-07-14, 00:49:00,VALID,916.851,VALID,0,VALID,100,VALID,-0.0849042,VALID,18.3516,VALID,63,VALID,0.708705,
2004-07-14, 00:50:00,VALID,916.844,VALID,0,VALID,100,VALID,-0.0509425,VALID,18.3707,VALID,62,VALID,0.876042,
2004-07-14, 00:51:01,VALID,916.83,VALID,0,VALID,100,VALID,-0.0509425,VALID,18.4387,VALID,67,VALID,0.74442,
2004-07-14, 00:52:00,VALID,916.813,VALID,0,VALID,100,VALID,-0.0509425,VALID,18.546,VALID,88,VALID,0.832639,
2004-07-14, 00:53:00,VALID,916.782,VALID,0,VALID,100,VALID,-0.0509425,VALID,18.623,VALID,89,VALID,0.684375,
2004-07-14, 00:54:00,VALID,916.765,VALID,0,VALID,100,VALID,-0.0339617,VALID,18.6294,VALID,91,VALID,0.510671,
2004-07-14, 00:55:00,VALID,916.754,VALID,0,VALID,100,VALID,-0.0849042,VALID,18.6043,VALID,91,VALID,0.329427,
2004-07-14, 00:56:00,VALID,916.732,VALID,0,VALID,99.8243,VALID,-0.0679233,VALID,18.4424,VALID,59,VALID,0.75071,
2004-07-14, 00:57:00,VALID,916.737,VALID,0,VALID,99.2869,VALID,-0.0849042,VALID,18.2326,VALID,24,VALID,1.22729,
2004-07-14, 00:58:00,VALID,916.74,VALID,0,VALID,99.8332,VALID,-0.0849042,VALID,18.2649,VALID,23,VALID,1.1666,
2004-07-14, 00:59:00,VALID,916.728,VALID,0,VALID,100,VALID,-0.0849042,VALID,18.3977,VALID,31,VALID,0.714844,
2004-07-14, 01:00:00,VALID,916.718,VALID,0,VALID,100,VALID,-0.0509425,VALID,18.5045,VALID,33,VALID,0.477965,
2004-07-14, 01:01:01,VALID,916.712,VALID,0,VALID,100,VALID,-0.0679233,VALID,18.5785,VALID,33,VALID,0.352751,
2004-07-14, 01:02:00,VALID,916.685,VALID,0,VALID,100,VALID,-0.0339617,VALID,18.6168,VALID,43,VALID,0.450149,
2004-07-14, 01:03:00,VALID,916.656,VALID,0,VALID,100,VALID,-0.0509425,VALID,18.6654,VALID,63,VALID,0.610709,
2004-07-14, 01:04:00,VALID,916.625,VALID,0,VALID,100,VALID,-0.0339617,VALID,18.7205,VALID,63,VALID,0.685594,
2004-07-14, 01:05:00,VALID,916.605,VALID,0,VALID,100,VALID,-0.0509425,VALID,18.7722,VALID,63,VALID,0.592797,
2004-07-14, 01:06:00,VALID,916.57,VALID,0,VALID,100,VALID,-0.0679233,VALID,18.8043,VALID,63,VALID,0.51726,
2004-07-14, 01:07:00,VALID,916.534,VALID,0,VALID,100,VALID,-0.0849042,VALID,18.8529,VALID,63,VALID,0.446221,
2004-07-14, 01:08:00,VALID,916.515,VALID,0,VALID,100,VALID,-0.0509425,VALID,18.8755,VALID,63,VALID,0.313988,
2004-07-14, 01:09:00,VALID,916.495,VALID,0,VALID,100,VALID,-0.0169808,VALID,18.8269,VALID,63,VALID,0.485491,
2004-07-14, 01:10:00,VALID,916.483,VALID,0,VALID,99.9349,VALID,-0.0679233,VALID,18.7233,VALID,84,VALID,0.628089,
2004-07-14, 01:11:00,VALID,916.454,VALID,0,VALID,99.7981,VALID,-0.0679233,VALID,18.653,VALID,111,VALID,0.577381,
2004-07-14, 01:12:01,VALID,916.441,VALID,0,VALID,98.8278,VALID,-0.0339617,VALID,18.4141,VALID,85,VALID,0.418899,
2004-07-14, 01:13:01,VALID,916.409,VALID,0,VALID,98.9181,VALID,-0.0849042,VALID,18.3075,VALID,57,VALID,0.50651,
2004-07-14, 01:14:00,VALID,916.388,VALID,0,VALID,98.838,VALID,-0.0679233,VALID,18.2425,VALID,48,VALID,0.636446,
2004-07-14, 01:15:00,VALID,916.374,VALID,0,VALID,99.1267,VALID,-0.0849042,VALID,18.2074,VALID,45,VALID,0.519159,
2004-07-14, 01:16:01,VALID,916.353,VALID,0,VALID,99.3848,VALID,-0.0679233,VALID,18.2072,VALID,45,VALID,0.242914,
2004-07-14, 01:17:00,VALID,916.354,VALID,0,VALID,99.4191,VALID,-0.0849042,VALID,18.1941,VALID,45,VALID,0.0176235,
2004-07-14, 01:18:00,VALID,916.339,VALID,0,VALID,99.6607,VALID,-0.101885,VALID,18.2201,VALID,42,VALID,0.301067,
2004-07-14, 01:19:00,VALID,916.333,VALID,0,VALID,100,VALID,-0.101885,VALID,18.3682,VALID,37,VALID,0.257986,
2004-07-14, 01:20:01,VALID,916.322,VALID,0,VALID,100,VALID,-0.0849042,VALID,18.498,VALID,36,VALID,0.169457,
2004-07-14, 01:21:00,VALID,916.307,VALID,0,VALID,100,VALID,-0.0849042,VALID,18.5432,VALID,36,VALID,0,
2004-07-14, 01:22:01,VALID,916.308,VALID,0,VALID,99.999,VALID,-0.0169808,VALID,18.5522,VALID,74,VALID,0.306323,
2004-07-14, 01:23:00,VALID,916.299,VALID,0,VALID,99.4675,VALID,0,VALID,18.4258,VALID,142,VALID,1.01658,
2004-07-14, 01:24:00,VALID,916.291,VALID,0,VALID,99.2157,VALID,0,VALID,18.2513,VALID,139,VALID,1.02825,
2004-07-14, 01:25:01,VALID,916.301,VALID,0,VALID,99.6111,VALID,0.0339617,VALID,18.1962,VALID,134,VALID,1.24981,
2004-07-14, 01:26:00,VALID,916.279,VALID,0,VALID,100,VALID,0,VALID,18.2517,VALID,128,VALID,1.12246,
2004-07-14, 01:27:00,VALID,916.266,VALID,0,VALID,100,VALID,0.0169808,VALID,18.2838,VALID,128,VALID,0.973656,
2004-07-14, 01:28:00,VALID,916.255,VALID,0,VALID,100,VALID,0.0169808,VALID,18.2962,VALID,144,VALID,0.756177,
2004-07-14, 01:29:00,VALID,916.247,VALID,0,VALID,100,VALID,0.0509425,VALID,18.3024,VALID,139,VALID,0.517882,
2004-07-14, 01:30:00,VALID,916.238,VALID,0,VALID,100,VALID,0.0339617,VALID,18.3223,VALID,134,VALID,0.506288,
2004-07-14, 01:31:00,VALID,916.221,VALID,0,VALID,99.7594,VALID,0,VALID,18.2808,VALID,131,VALID,0.5496,
2004-07-14, 01:32:01,VALID,916.226,VALID,0,VALID,99.9458,VALID,0.0169808,VALID,18.2319,VALID,126,VALID,1.07091,
2004-07-14, 01:33:00,VALID,916.193,VALID,0,VALID,100,VALID,0.0169808,VALID,18.2868,VALID,112,VALID,1.27435,
2004-07-14, 01:34:01,VALID,916.169,VALID,0,VALID,100,VALID,0,VALID,18.3933,VALID,108,VALID,1.43236,
2004-07-14, 01:35:00,VALID,916.155,VALID,0,VALID,100,VALID,0.0169808,VALID,18.4807,VALID,101,VALID,1.16034,
2004-07-14, 01:36:00,VALID,916.128,VALID,0,VALID,100,VALID,0,VALID,18.5261,VALID,84,VALID,0.78145,
2004-07-14, 01:37:01,VALID,916.112,VALID,0,VALID,100,VALID,0,VALID,18.4742,VALID,79,VALID,0.839658,
2004-07-14, 01:38:01,VALID,916.1,VALID,0,VALID,100,VALID,0.0339617,VALID,18.4509,VALID,92,VALID,0.96657,
2004-07-14, 01:39:00,VALID,916.106,VALID,0,VALID,99.9891,VALID,0.0509425,VALID,18.4745,VALID,99,VALID,1.00391,
2004-07-14, 01:40:00,VALID,916.114,VALID,0,VALID,99.8489,VALID,0,VALID,18.4316,VALID,87,VALID,0.766387,
2004-07-14, 01:41:00,VALID,916.117,VALID,0,VALID,99.8934,VALID,0.0169808,VALID,18.4196,VALID,75,VALID,1.11128,
2004-07-14, 01:42:01,VALID,916.123,VALID,0,VALID,99.9621,VALID,0.0339617,VALID,18.439,VALID,84,VALID,1.02273,
2004-07-14, 01:43:01,VALID,916.1,VALID,0,VALID,100,VALID,0.0509425,VALID,18.4556,VALID,95,VALID,1.17097,
2004-07-14, 01:44:01,VALID,916.092,VALID,0,VALID,99.9939,VALID,0.0339617,VALID,18.4782,VALID,103,VALID,0.986632,
2004-07-14, 01:45:00,VALID,916.079,VALID,0,VALID,99.8871,VALID,0.0339617,VALID,18.4415,VALID,124,VALID,1.26637,
2004-07-14, 01:46:01,VALID,916.057,VALID,0,VALID,99.924,VALID,0.0169808,VALID,18.442,VALID,128,VALID,1.17001,
2004-07-14, 01:47:01,VALID,916.026,VALID,0,VALID,99.8667,VALID,0,VALID,18.4191,VALID,114,VALID,1.16406,
2004-07-14, 01:48:01,VALID,915.998,VALID,0,VALID,99.9517,VALID,0.0339617,VALID,18.3998,VALID,131,VALID,1.25868,
2004-07-14, 01:49:01,VALID,915.963,VALID,0,VALID,100,VALID,0.0169808,VALID,18.3905,VALID,126,VALID,1.58333,
2004-07-14, 01:50:00,VALID,915.939,VALID,0,VALID,100,VALID,0.0169808,VALID,18.3774,VALID,120,VALID,1.2037,
2004-07-14, 01:51:01,VALID,915.917,VALID,0,VALID,100,VALID,0.0339617,VALID,18.3513,VALID,112,VALID,1.48638,
2004-07-14, 01:52:00,VALID,915.894,VALID,0,VALID,100,VALID,0.0169808,VALID,18.3453,VALID,109,VALID,1.46387,
2004-07-14, 01:53:01,VALID,915.879,VALID,0,VALID,100,VALID,0,VALID,18.349,VALID,117,VALID,1.36365,
2004-07-14, 01:54:01,VALID,915.866,VALID,0,VALID,100,VALID,-0.0169808,VALID,18.3585,VALID,128,VALID,1.58041,
2004-07-14, 01:55:01,VALID,915.861,VALID,0,VALID,100,VALID,0,VALID,18.3322,VALID,133,VALID,1.46502,
2004-07-14, 01:56:01,VALID,915.842,VALID,0,VALID,100,VALID,0,VALID,18.3101,VALID,136,VALID,1.25725,
2004-07-14, 01:57:01,VALID,915.818,VALID,0,VALID,100,VALID,0,VALID,18.281,VALID,134,VALID,1.47869,
2004-07-14, 01:58:01,VALID,915.777,VALID,0,VALID,100,VALID,0,VALID,18.2616,VALID,138,VALID,1.24323,
2004-07-14, 01:59:01,VALID,915.755,VALID,0,VALID,100,VALID,0,VALID,18.2517,VALID,129,VALID,1.29427,
2004-07-14, 02:00:01,VALID,915.725,VALID,0,VALID,100,VALID,0,VALID,18.2319,VALID,135,VALID,1.0968,
2004-07-14, 02:01:01,VALID,915.706,VALID,0,VALID,100,VALID,-0.0169808,VALID,18.2291,VALID,134,VALID,1.24132,
2004-07-14, 02:02:01,VALID,915.699,VALID,0,VALID,100,VALID,-0.0339617,VALID,18.213,VALID,126,VALID,0.9625,
2004-07-14, 02:03:01,VALID,915.69,VALID,0,VALID,100,VALID,0.0169808,VALID,18.1708,VALID,109,VALID,0.834162,
2004-07-14, 02:04:01,VALID,915.665,VALID,0,VALID,100,VALID,0.0169808,VALID,18.1609,VALID,88,VALID,0.69707,
2004-07-14, 02:05:00,VALID,915.636,VALID,0,VALID,100,VALID,0.0339617,VALID,18.151,VALID,83,VALID,0.832126,
2004-07-14, 02:06:01,VALID,915.613,VALID,0,VALID,100,VALID,0,VALID,18.1291,VALID,67,VALID,0.608186,
2004-07-14, 02:07:01,VALID,915.598,VALID,0,VALID,100,VALID,-0.0169808,VALID,18.1263,VALID,98,VALID,0.644717,
2004-07-14, 02:08:01,VALID,915.6,VALID,0,VALID,100,VALID,0.0169808,VALID,18.1516,VALID,99,VALID,0.854651,
2004-07-14, 02:09:01,VALID,915.599,VALID,0,VALID,100,VALID,0,VALID,18.1869,VALID,79,VALID,0.703125,
2004-07-14, 02:10:01,VALID,915.62,VALID,0,VALID,100,VALID,0,VALID,18.2091,VALID,72,VALID,0.557893,
2004-07-14, 02:11:01,VALID,915.618,VALID,0,VALID,100,VALID,0,VALID,18.2582,VALID,79,VALID,0.219131,
2004-07-14, 02:12:01,VALID,915.621,VALID,0,VALID,100,VALID,0,VALID,18.287,VALID,89,VALID,0.110899,
2004-07-14, 02:13:01,VALID,915.619,VALID,0,VALID,100,VALID,-0.0169808,VALID,18.3103,VALID,89,VALID,0.102734,
2004-07-14, 02:14:01,VALID,915.603,VALID,0,VALID,100,VALID,0.0339617,VALID,18.3091,VALID,89,VALID,0.0641741,
2004-07-14, 02:15:01,VALID,915.579,VALID,0,VALID,100,VALID,0,VALID,18.3031,VALID,89,VALID,0.0634301,
2004-07-14, 02:16:01,VALID,915.58,VALID,0,VALID,100,VALID,0.0169808,VALID,18.2711,VALID,89,VALID,0.35973,
2004-07-14, 02:17:01,VALID,915.598,VALID,0,VALID,100,VALID,0,VALID,18.281,VALID,86,VALID,0.589571,
2004-07-14, 02:18:01,VALID,915.602,VALID,0,VALID,100,VALID,0,VALID,18.3034,VALID,69,VALID,0.840843,
2004-07-14, 02:19:01,VALID,915.633,VALID,0,VALID,100,VALID,0.0169808,VALID,18.2775,VALID,64,VALID,0.899858,
2004-07-14, 02:20:01,VALID,915.657,VALID,0,VALID,100,VALID,-0.0169808,VALID,18.2582,VALID,61,VALID,0.81994,
2004-07-14, 02:21:01,VALID,915.654,VALID,0,VALID,100,VALID,0,VALID,18.2358,VALID,69,VALID,0.848656,
2004-07-14, 02:22:01,VALID,915.651,VALID,0,VALID,99.9804,VALID,-0.0339617,VALID,18.1881,VALID,54,VALID,0.984375,
2004-07-14, 02:23:01,VALID,915.638,VALID,0,VALID,99.8375,VALID,-0.101885,VALID,18.1463,VALID,41,VALID,0.865589,
2004-07-14, 02:24:01,VALID,915.622,VALID,0,VALID,99.8706,VALID,-0.101885,VALID,18.127,VALID,41,VALID,0.81064,
2004-07-14, 02:25:01,VALID,915.606,VALID,0,VALID,99.9753,VALID,-0.0849042,VALID,18.1429,VALID,41,VALID,0.743278,
2004-07-14, 02:26:01,VALID,915.604,VALID,0,VALID,99.999,VALID,-0.0849042,VALID,18.1687,VALID,50,VALID,0.719322,
2004-07-14, 02:27:01,VALID,915.588,VALID,0,VALID,100,VALID,-0.101885,VALID,18.1987,VALID,66,VALID,0.968564,
2004-07-14, 02:28:01,VALID,915.588,VALID,0,VALID,100,VALID,-0.0849042,VALID,18.2238,VALID,74,VALID,0.783975,
2004-07-14, 02:29:01,VALID,915.567,VALID,0,VALID,99.8006,VALID,-0.0849042,VALID,18.1562,VALID,66,VALID,0.87936,
2004-07-14, 02:30:01,VALID,915.559,VALID,0,VALID,99.5272,VALID,-0.0849042,VALID,18.0626,VALID,52,VALID,0.975195,
2004-07-14, 02:31:00,VALID,915.54,VALID,0,VALID,99.6099,VALID,-0.0679233,VALID,18.0366,VALID,54,VALID,0.95957,
2004-07-14, 02:32:00,VALID,915.527,VALID,0,VALID,99.6188,VALID,0,VALID,18.0193,VALID,47,VALID,1.35435,
2004-07-14, 02:33:00,VALID,915.508,VALID,0,VALID,99.6366,VALID,0.0169808,VALID,18.0096,VALID,50,VALID,1.68288,
2004-07-14, 02:34:00,VALID,915.509,VALID,0,VALID,99.9888,VALID,0,VALID,18.0647,VALID,65,VALID,1.38192,
2004-07-14, 02:35:00,VALID,915.505,VALID,0,VALID,100,VALID,0,VALID,18.1835,VALID,81,VALID,0.975,
2004-07-14, 02:36:00,VALID,915.493,VALID,0,VALID,100,VALID,0,VALID,18.2358,VALID,73,VALID,0.977471,
2004-07-14, 02:37:00,VALID,915.502,VALID,0,VALID,100,VALID,0,VALID,18.2614,VALID,64,VALID,1.05673,
2004-07-14, 02:38:00,VALID,915.5,VALID,0,VALID,100,VALID,0,VALID,18.2748,VALID,86,VALID,0.78924,
2004-07-14, 02:39:00,VALID,915.514,VALID,0,VALID,100,VALID,0,VALID,18.3292,VALID,99,VALID,0.748285,
2004-07-14, 02:40:00,VALID,915.526,VALID,0,VALID,99.8812,VALID,0.0169808,VALID,18.3652,VALID,95,VALID,0.597384,
2004-07-14, 02:41:00,VALID,915.538,VALID,0,VALID,99.1178,VALID,0,VALID,18.2328,VALID,31,VALID,0.456845,
2004-07-14, 02:42:00,VALID,915.55,VALID,0,VALID,98.8596,VALID,0,VALID,18.1321,VALID,39,VALID,0.258333,
2004-07-14, 02:43:00,VALID,915.557,VALID,0,VALID,99.0605,VALID,0.0169808,VALID,18.1164,VALID,45,VALID,0.334263,
2004-07-14, 02:44:00,VALID,915.577,VALID,0,VALID,99.147,VALID,0.0169808,VALID,18.0873,VALID,47,VALID,0.510831,
2004-07-14, 02:45:00,VALID,915.606,VALID,0,VALID,98.9792,VALID,0.0339617,VALID,18.0389,VALID,47,VALID,0.717297,
2004-07-14, 02:46:00,VALID,915.632,VALID,0,VALID,98.983,VALID,0.0169808,VALID,17.9965,VALID,54,VALID,0.861111,
2004-07-14, 02:47:00,VALID,915.677,VALID,0,VALID,99.1941,VALID,0,VALID,17.9711,VALID,55,VALID,0.733285,
2004-07-14, 02:48:00,VALID,915.698,VALID,0,VALID,99.5374,VALID,-0.0169808,VALID,17.9872,VALID,87,VALID,0.600074,
2004-07-14, 02:49:00,VALID,915.731,VALID,0,VALID,99.4585,VALID,0,VALID,17.984,VALID,112,VALID,0.602108,
2004-07-14, 02:50:00,VALID,915.758,VALID,0,VALID,99.9067,VALID,0,VALID,17.9967,VALID,107,VALID,0.772879,
2004-07-14, 02:51:00,VALID,915.79,VALID,0,VALID,100,VALID,0.0339617,VALID,18.1327,VALID,103,VALID,0.956395,
2004-07-14, 02:52:00,VALID,915.798,VALID,0,VALID,100,VALID,0,VALID,18.2356,VALID,99,VALID,0.783612,
2004-07-14, 02:53:00,VALID,915.813,VALID,0,VALID,100,VALID,0.0169808,VALID,18.3131,VALID,100,VALID,0.77934,
2004-07-14, 02:54:00,VALID,915.799,VALID,0,VALID,99.8688,VALID,0.0169808,VALID,18.2709,VALID,111,VALID,0.930596,
2004-07-14, 02:55:00,VALID,915.791,VALID,0,VALID,99.6811,VALID,0.0339617,VALID,18.2005,VALID,114,VALID,0.903088,
2004-07-14, 02:56:00,VALID,915.741,VALID,0,VALID,99.6595,VALID,0,VALID,18.1516,VALID,120,VALID,0.633507,
2004-07-14, 02:57:00,VALID,915.702,VALID,0,VALID,99.6607,VALID,0.0169808,VALID,18.1254,VALID,121,VALID,0.804306,
2004-07-14, 02:58:00,VALID,915.647,VALID,0,VALID,99.6493,VALID,0.0169808,VALID,18.0938,VALID,133,VALID,0.989648,
2004-07-14, 02:59:00,VALID,915.609,VALID,0,VALID,99.9321,VALID,0,VALID,18.1097,VALID,133,VALID,1.35247,
2004-07-14, 03:00:00,VALID,915.586,VALID,0,VALID,100,VALID,0.0339617,VALID,18.1616,VALID,131,VALID,1.39118,
2004-07-14, 03:01:00,VALID,915.56,VALID,0,VALID,100,VALID,0.0169808,VALID,18.1839,VALID,131,VALID,1.47324,
2004-07-14, 03:02:00,VALID,915.535,VALID,0,VALID,100,VALID,0.0169808,VALID,18.2483,VALID,131,VALID,1.45617,
2004-07-14, 03:03:00,VALID,915.518,VALID,0,VALID,100,VALID,0,VALID,18.2709,VALID,130,VALID,1.46927,
2004-07-14, 03:04:00,VALID,915.517,VALID,0,VALID,100,VALID,0.0169808,VALID,18.3034,VALID,123,VALID,1.41481,
2004-07-14, 03:05:00,VALID,915.498,VALID,0,VALID,99.9529,VALID,0.0339617,VALID,18.3227,VALID,115,VALID,1.09306,
2004-07-14, 03:06:00,VALID,915.483,VALID,0,VALID,99.9046,VALID,0.0169808,VALID,18.326,VALID,111,VALID,1.26358,
2004-07-14, 03:07:00,VALID,915.482,VALID,0,VALID,99.9555,VALID,0,VALID,18.3486,VALID,119,VALID,1.22053,
2004-07-14, 03:08:00,VALID,915.465,VALID,0,VALID,99.6391,VALID,0.0169808,VALID,18.3386,VALID,69,VALID,1.08303,
2004-07-14, 03:09:00,VALID,915.472,VALID,0,VALID,99.5247,VALID,0,VALID,18.3135,VALID,63,VALID,1.22674,
2004-07-14, 03:10:00,VALID,915.47,VALID,0,VALID,99.8527,VALID,0.0169808,VALID,18.3449,VALID,88,VALID,1.13574,
2004-07-14, 03:11:00,VALID,915.5,VALID,0,VALID,99.8146,VALID,0,VALID,18.4002,VALID,92,VALID,0.945139,
2004-07-14, 03:12:00,VALID,915.541,VALID,0,VALID,99.6544,VALID,0.0169808,VALID,18.4034,VALID,61,VALID,0.895712,
2004-07-14, 03:13:00,VALID,915.566,VALID,0,VALID,99.3327,VALID,0,VALID,18.391,VALID,45,VALID,0.458394,
2004-07-14, 03:14:00,VALID,915.586,VALID,0,VALID,99.4242,VALID,0,VALID,18.391,VALID,69,VALID,0.442294,
2004-07-14, 03:15:00,VALID,915.616,VALID,0,VALID,99.5565,VALID,0,VALID,18.426,VALID,39,VALID,0.488467,
2004-07-14, 03:16:00,VALID,915.634,VALID,0,VALID,99.3581,VALID,0.0339617,VALID,18.423,VALID,5,VALID,0.812322,
2004-07-14, 03:17:00,VALID,915.635,VALID,0,VALID,99.4115,VALID,0.0169808,VALID,18.4228,VALID,354,VALID,0.637962,
2004-07-14, 03:18:00,VALID,915.652,VALID,0,VALID,99.587,VALID,0.0339617,VALID,18.4586,VALID,347,VALID,0.685683,
2004-07-14, 03:19:00,VALID,915.653,VALID,0,VALID,99.6989,VALID,0.0339617,VALID,18.5068,VALID,317,VALID,0.980168,
2004-07-14, 03:20:00,VALID,915.65,VALID,0,VALID,99.6963,VALID,0,VALID,18.5353,VALID,293,VALID,1.15681,
2004-07-14, 03:21:00,VALID,915.647,VALID,0,VALID,99.5641,VALID,0.0339617,VALID,18.5351,VALID,268,VALID,0.8038,
2004-07-14, 03:22:00,VALID,915.628,VALID,0,VALID,99.4611,VALID,-0.0339617,VALID,18.5137,VALID,258,VALID,0.610742,
2004-07-14, 03:23:00,VALID,915.611,VALID,0,VALID,99.5361,VALID,-0.0849042,VALID,18.5081,VALID,260,VALID,0.798692,
2004-07-14, 03:24:00,VALID,915.607,VALID,0,VALID,99.6722,VALID,-0.0849042,VALID,18.4915,VALID,262,VALID,0.376715,
2004-07-14, 03:25:00,VALID,915.62,VALID,0,VALID,99.7091,VALID,-0.0849042,VALID,18.4625,VALID,262,VALID,0.373355,
2004-07-14, 03:26:00,VALID,915.641,VALID,0,VALID,99.8362,VALID,-0.101885,VALID,18.4692,VALID,262,VALID,0.154492,
2004-07-14, 03:27:00,VALID,915.656,VALID,0,VALID,99.8438,VALID,-0.101885,VALID,18.4657,VALID,262,VALID,0.0602134,
2004-07-14, 03:28:00,VALID,915.682,VALID,0,VALID,99.6404,VALID,-0.0849042,VALID,18.4078,VALID,262,VALID,0.12686,
2004-07-14, 03:29:00,VALID,915.698,VALID,0,VALID,99.5921,VALID,-0.101885,VALID,18.3723,VALID,262,VALID,0.234947,
2004-07-14, 03:30:00,VALID,915.712,VALID,0,VALID,99.5654,VALID,-0.101885,VALID,18.343,VALID,262,VALID,0.214935,
2004-07-14, 03:31:00,VALID,915.725,VALID,0,VALID,99.6226,VALID,-0.0849042,VALID,18.3237,VALID,262,VALID,0.315874,
2004-07-14, 03:32:00,VALID,915.716,VALID,0,VALID,99.7561,VALID,-0.0849042,VALID,18.3269,VALID,262,VALID,0.205078,
2004-07-14, 03:33:00,VALID,915.709,VALID,0,VALID,99.8413,VALID,-0.101885,VALID,18.3336,VALID,262,VALID,0.210227,
2004-07-14, 03:34:00,VALID,915.712,VALID,0,VALID,99.8973,VALID,-0.0679233,VALID,18.3499,VALID,262,VALID,0.21968,
2004-07-14, 03:35:00,VALID,915.718,VALID,0,VALID,99.9443,VALID,-0.0679233,VALID,18.3329,VALID,262,VALID,0.302257,
2004-07-14, 03:36:00,VALID,915.708,VALID,0,VALID,99.9845,VALID,-0.101885,VALID,18.3398,VALID,201,VALID,0.468568,
2004-07-14, 03:37:00,VALID,915.688,VALID,0,VALID,99.8856,VALID,-0.0849042,VALID,18.3267,VALID,175,VALID,0.73266,